This demonstration page uses our WeatherBlox Daily Observations layout. Learn more.

Left ArrowRight Arrow

53.62937, 11.41316

Hourly Observations for April 25, 2021

Temp ( °F °C ) Dew Point ( °F °C ) Humidity (%) Winds ( mph kmh ) Pressure ( in mb ) Visibility ( mi km ) Precip ( " mm )
7:50 am 07:50 Mostly Sunny 36 2 30 -1 81 81 WNW 3 6 30.27 1025 7 11 N/A
8:20 am 08:20 Mostly Sunny 41 5 32 0 70 70 NW 3 6 30.27 1025 30 48 N/A
8:50 am 08:50 Mostly Sunny 45 7 28 -2 53 53 NNE 9 15 30.27 1025 30 48 N/A
9:20 am 09:20 Mostly Sunny 45 7 27 -3 49 49 N 12 19 30.27 1025 30 48 N/A
9:50 am 09:50 Mostly Sunny 46 8 27 -3 46 46 NNE 10 17 30.27 1025 30 48 N/A
10:20 am 10:20 Partly Cloudy 45 7 23 -5 42 42 NNE 13 20 30.30 1026 30 48 N/A
10:50 am 10:50 Partly Cloudy 48 9 27 -3 43 43 NNE 13 20 30.30 1026 30 48 N/A
11:20 am 11:20 Mostly Sunny 48 9 21 -6 34 34 NNE 10 17 30.30 1026 7 11 N/A
11:50 am 11:50 Mostly Sunny 46 8 21 -6 37 37 N 12 19 30.30 1026 7 11 N/A
12:20 pm 12:20 Mostly Sunny 48 9 21 -6 34 34 NE 13 20 30.30 1026 7 11 N/A
12:50 pm 12:50 Mostly Sunny 48 9 21 -6 34 34 N 10 17 30.30 1026 7 11 N/A
1:20 pm 13:20 Mostly Sunny 48 9 25 -4 40 40 NNE 12 19 30.30 1026 7 11 N/A
1:50 pm 13:50 Mostly Sunny 46 8 23 -5 40 40 NNE 9 15 30.30 1026 7 11 N/A
2:20 pm 14:20 Mostly Sunny 48 9 23 -5 37 37 NNE 12 19 30.30 1026 7 11 N/A
2:50 pm 14:50 Mostly Sunny 46 8 21 -6 37 37 NNE 13 20 30.30 1026 7 11 N/A
3:20 pm 15:20 Mostly Sunny 48 9 19 -7 32 32 NNE 10 17 30.30 1026 7 11 N/A
3:50 pm 15:50 Mostly Sunny 50 10 23 -5 35 35 N 8 13 30.30 1026 7 11 N/A
4:20 pm 16:20 Mostly Sunny 50 10 23 -5 35 35 NE 10 17 30.30 1026 7 11 N/A
4:50 pm 16:50 Mostly Sunny 52 11 23 -5 32 32 N 12 19 30.30 1026 7 11 N/A
5:20 pm 17:20 Mostly Sunny 50 10 18 -8 28 28 NNW 13 20 30.27 1025 7 11 N/A
5:50 pm 17:50 Mostly Sunny 50 10 19 -7 30 30 NNW 13 20 30.27 1025 7 11 N/A
6:20 pm 18:20 Mostly Sunny 48 9 19 -7 32 32 N 12 19 30.27 1025 7 11 N/A
6:50 pm 18:50 Mostly Sunny 48 9 19 -7 32 32 N 13 20 30.27 1025 7 11 N/A
7:20 pm 19:20 Mostly Sunny 48 9 21 -6 34 34 N 10 17 30.27 1025 7 11 N/A
7:50 pm 19:50 Mostly Sunny 46 8 21 -6 37 37 N 8 13 30.27 1025 7 11 N/A
8:20 pm 20:20 Mostly Sunny 45 7 21 -6 39 39 N 5 7 30.27 1025 7 11 N/A
8:50 pm 20:50 Mostly Clear 45 7 21 -6 39 39 NNW 3 6 30.27 1025 7 11 N/A
9:20 pm 21:20 Mostly Clear 45 7 21 -6 39 39 WNW 2 4 30.27 1025 7 11 N/A
9:50 pm 21:50 Mostly Clear 43 6 21 -6 42 42 NNW 1 2 30.27 1025 7 11 N/A

Powered by AerisWeather